Regional Weather Roundup
Issued by NWS Grand Forks, ND

Home | Current Version | Previous Version | Graphics & Text | Print | Product List | Glossary On
Versions: 1 2 3 4 5 6 7 8 9 10 11 12 13 14 15 16 17 18 19 20 21 22 23 24 25 26 27 28 29 30 31 32 33 34 35 36 37 38 39 40 41 42 43 44 45 46 47 48 49 50
000
ASUS43 KFGF 192231
RWRFGF
PRAIRIE TO PINES  WEATHER ROUNDUP
NATIONAL WEATHER SERVICE EASTERN NORTH DAKOTA/GRAND FORKS ND
400 PM CST FRI JAN 19 2018

 **SATELLITE DATA USED TO AUGMENT SKY COVER AT AUTOMATED STATIONS**
 *****  WEATHER ACROSS EASTERN NORTH DAKOTA  *****

CITY           SKY/WX    TMP DP  RH WIND       PRES   REMARKS
GRAND FORKS    MOCLDY    38  33  82 W8        29.52R
GRAND FRKS AFB MOCLDY    40  31  71 NW9       29.53R
DEVILS LAKE    FAIR      36  30  79 W14       29.55R
FARGO          FAIR      38  32  79 W8        29.54R
WAHPETON ARPT  FAIR      37  32  81 W9        29.57R
$$

 ***** WEATHER ACROSS CENTRAL AND WESTERN NORTH DAKOTA  *****

CITY           SKY/WX    TMP DP  RH WIND       PRES   REMARKS
BISMARCK       FAIR      42  31  64 W7        29.63R
MINOT          FAIR      41  29  62 W13       29.56R
JAMESTOWN      FAIR      40  32  73 NW13      29.55R
MINOT AFB      FAIR      39  30  69 W13       29.55R
GARRISON         N/A     40  31  70 W8        29.60R
WILLISTON      FAIR      38  28  67 SW15      29.61F
DICKINSON      FAIR      38  30  73 W17       29.61S
HETTINGER      CLOUDY    37  32  82 W16       29.67S
$$

 *****  OTHER AIRPORT OBSERVATIONS IN OUR AREA  *****

CITY           SKY/WX    TMP DP  RH WIND       PRES   REMARKS
WALHALLA       FAIR      39  34  81 W7        29.49R
GRAFTON AIRPOR FAIR      37  32  81 W9        29.52S
VALLEY CITY AR MIX PCPN  39  34  81 NW17      29.57R
CANDO          FAIR      37  30  75 W16       29.56R
CAVALIER APRT    N/A     39  32  75 W7        29.49R
GWINNER          N/A     41  32  70 NW9       29.57R
SHEYENNE NWR     N/A     42  31  66 NW7       29.95S
ROLLA          FAIR      39  28  65 W15       29.52R
 ***** THE ABOVE OBSERVATIONS ARE NON NWS ARE NOT QUALITY
       CONTROLLED AND MAY MIS-REPORT RAIN FOR SNOW...
$$

  *****  WEATHER ACROSS NORTHERN MINNESOTA  *****

CITY           SKY/WX    TMP DP  RH WIND       PRES   REMARKS
FLAG ISLAND    CLOUDY    37  30  75 NW15      29.39R
WARROAD        FAIR      39  34  81 W12G17    29.44R
ROSEAU         FAIR      39  32  75 W9        29.45R
HALLOCK        FAIR      36  32  87 W8        29.50R
THF RVR FALLS  FAIR      38  31  76 W13       29.50R
BAUDETTE       FAIR      39  31  72 W15G24    29.40R
WASKISH        MOCLDY    36  32  87 W8        29.45R
CROOKSTON      FAIR      36  32  87 W12       29.54R
STEPHEN NDAWN    N/A     37  30  75 W9          N/A
GREENBUSH NDAW   N/A     36  30  80 W10         N/A
$$
  *****  WEATHER ACROSS CENTRAL AND WEST MINNESOTA  *****

CITY           SKY/WX    TMP DP  RH WIND       PRES   REMARKS
FOSSTON        FAIR      36  28  75 W6        29.52R
BEMIDJI        FAIR      38  30  72 W13       29.46R
PARK RAPIDS    FAIR      40  30  67 W9        29.47R
ELBOW LAKE     FAIR      37  32  81 NW8       29.57R
WADENA         FAIR      39  28  65 W9        29.51R
DETROIT LAKES  FAIR      37  32  81 W10       29.53R
MOORHEAD       FAIR      37  30  75 NW8       29.56R
FERGUS FALLS   FAIR      36  30  80 NW3       29.54S
MORRIS MN      FAIR      43  30  61 NW10      29.56R
STAPLES        FAIR      37  28  70 W8        29.50R
$$
  *****  WEATHER ELSEWHERE ACROSS MINNESOTA  *****

CITY           SKY/WX    TMP DP  RH WIND       PRES   REMARKS
DULUTH         FAIR      38  29  70 W10       29.40R
INTRNTL FALLS  FAIR      43  30  60 W20       29.36R
ELY            FAIR      37  30  75 W3        29.36R
CLOQUET        FAIR      39  27  60 SW5       29.43R
WHEATON        FAIR      43  30  61 NW8       29.60R
BRAINERD       FAIR      46  26  45 W6        29.47R
HIBBING        MOCLDY    39  29  67 SW5       29.38F
ALEXANDRIA     FAIR      41  29  62 NW13      29.53R
SAINT CLOUD    FAIR      43  31  62 W5        29.47R
MINNEAPOLIS    FAIR      43  32  65 SW9       29.50R
$$

  *****  WEATHER ACROSS SOUTH DAKOTA  *****

CITY           SKY/WX    TMP DP  RH WIND       PRES   REMARKS
SIOUX FALLS    CLOUDY    42  34  73 NW12      29.59R
BROOKINGS      FAIR      43  32  65 NW9       29.58R
WATERTOWN      FAIR      45  29  53 NW9       29.57R
HURON          FAIR      46  33  60 NW7       29.62R
SISSETON         N/A     47  29  49 NW13G23   29.57R
ABERDEEN       FAIR      47  31  53 NW13      29.61R
MITCHELL       FAIR      45  35  68 NW8       29.63R
PIERRE         FAIR      46  33  60 NW13      29.66R
MOBRIDGE       FAIR      47  33  58 NW10      29.62R
RAPID CITY     FAIR      46  31  55 N8        29.69R
$$

  *****  SOME WEATHER IN NEARBY STATES *****

CITY           SKY/WX    TMP DP  RH WIND       PRES   REMARKS
GLASGOW MT     FAIR      34  27  75 W6        29.64R
GREAT FALLS MT FAIR      41  19  41 W20G31    29.69S
CHEYENNE WY    FAIR      57  17  21 W24G36    29.72F
SCOTTSBLUFF NE FAIR      42  32  67 E3        29.66R
OMAHA NE       CLOUDY    43  30  60 S14       29.67R
DES MOINES IA  CLOUDY    47  28  47 SW9       29.68R
DAVENPORT IA   FAIR      44  26  49 S20       29.74F
CHICAGO IL     MOCLDY    39  25  57 SW22G29   29.76S
EAU CLAIRE WI  FAIR      40  28  62 SW10      29.50R
LA CROSSE WI   FAIR      41  28  60 S6        29.56R
$$

  *****  SOME NATIONAL WEATHER *****

CITY           SKY/WX    TMP DP  RH WIND       PRES   REMARKS
LA GUARDIA NY  MOCLDY    38  17  42 SW8       29.98S
RALEIGH NC     FAIR      46  26  45 SW7       30.14S
ATLANTA GA     FAIR      53   7  15 W5        30.22F
NEW ORLEANS LA PTSUNNY   58  31  35 SE8       30.26S
OKLAHOMA CITY  PTSUNNY   60  25  26 S20       29.88F
ALBUQUERQUE NM PTSUNNY   54  15  21 SW6       30.00F
SALT LAKE CITY CLOUDY    49  33  54 NW9       29.78S
LOS ANGELES CA CLOUDY    60  57  89 W8        29.94F
BOISE ID       FAIR      43  28  55 NW13G22   29.95R
SEATTLE WA     LGT RAIN  45  37  73 S14G25    29.88F
$$

*** WEATHER ACROSS MANITOBA...SASKATCHEWAN AND ONTARIO ***
                ***ONTARIO***

CITY           SKY/WX    TMP DP  RH WIND       PRES   REMARKS
GERALDTON      CLOUDY    32  28  86 SW7       29.21R
THUNDER BAY    LGT RAIN  34  30  86 VRB2      29.30F
SIOUX LOOKOUT  CLOUDY    36  30  80 W13G20    29.25R
TORONTO        MOCLDY    34  21  60 SW15G23   29.78S WCI  24
BIG TROUT LK   LGT SNOW   3   0  85 NE9       29.37R WCI -11
PICKLE LAKE    LGT SNOW  27  25  93 W7        29.17R FOG     WCI  19
DRYDEN         CLOUDY    36  32  87 W15G22    29.28R
KENORA         CLOUDY    36  30  80 W14G22    29.35R
$$
                *** MANITOBA***

CITY           SKY/WX    TMP DP  RH WIND       PRES   REMARKS
BRANDON        PTCLDY    37  30  75 W16       29.46R
DAUPHIN        CLOUDY    37  32  81 W16G22    29.43R
ISLAND LAKE    LGT SNOW   7   1  78 N12       29.45R BLWGSNOWWCI  -9
PILOT MOUND      N/A     37  30  75 W8          N/A
THE PAS        LGT SNOW  12   7  79 NE6       29.49R WCI   3
THOMPSON       FLURRIES   1  -4  78 NE9       29.57R WCI -14
WINNIPEG       MOCLDY    32  28  86 NW8       29.47R WCI  25
LYNN LAKE      MOCLDY    -4  -9  77 NE12      29.58R WCI -22
CHURCHILL      FLURRIES   3   1  92 E8        29.74R WCI -10
GILLAM         MOCLDY     5   0  78 NE12      29.58  WCI -11
$$
                ***SASKATCHEWAN***

CITY           SKY/WX    TMP DP  RH WIND       PRES   REMARKS
ESTEVAN        MOSUNNY   36  27  69 SW9       29.55S
KINDERSLEY     PTSUNNY   37  25  60 W13       29.52S
LLOYDMINSTER   PTCLDY    36  25  64 W13       29.45R
PRINCE ALBERT  MOCLDY    36  28  75 W9        29.44R
REGINA         MOSUNNY   37  30  75 W10       29.52R
YORKTON        CLEAR     34  28  80 W10       29.45R
N. BATTLEFORD  CLEAR     36  25  64 W8        29.49R
LA RONGE       LGT SNOW  14   9  79 NE6       29.47R WCI   5
SASKATOON      PTCLDY    37  27  65 W6        29.49R
SWIFT CURRENT  SUNNY     37  23  56 W18       29.54R
$$
NOTE: THESE ARE AUTOMATED STATIONS WITH LIMITED QUALITY CONTROL
      "FAIR" INDICATES FEW OR NO CLOUDS BELOW 12,000 FEET WITH NO
      SIGNIFICANT WEATHER AND/OR OBSTRUCTIONS TO VISIBILITY.
      SKY/WX - SKY CONDITION AND SIGNIFICANT WEATHER.
      TMP - AIR TEMPERATURE.    DP   - DEWPOINT TEMPERATURE.
      RH  - RELATIVE HUMIDITY.  PRES - PRESSURE.
      HX  - HEAT INDEX.         WCI  - WIND CHILL INDEX.
$




USA.gov is the U.S. government's official web portal to all federal, state and local government web resources and services.